COSMOS 2251 DEB

Satellite information

Favourite Embed

Satellite Type and Status

DEBRISIN ORBIT

Key statistics

Satellite COSMOS 2251 DEB at a glance.

Uptime

11709

Days in orbit

Revolutions

≈ 13.9

Per day

Orbit

LEO

Low Earth Orbit

Inclination

74.1

Latest

Satellite identification and parameters

Extended collection of information and parameters for COSMOS 2251 DEB.

Object identification

Identified? True

Debris? True

Object name: COSMOS 2251 DEB

International designator: 1993-036SB

Object number (NORAD): 34434

Object ID (CCSDS): 34434

Country: COMMONWEALTH OF INDEPENDENT STATES (CIS)

Current information (Y/N): Y

RCS size: SMALL

Orbital parameters

Period: 103.785 minutes

Inclination: 74.0608 deg

SMA: 7315.584 km

Apoapsis: 1148.743 km

Periapsis: 726.155 km

RAAN: 279.9759 deg

Eccentricy: 0.0288827

Argument of periapsis: 91.852 deg

Mean anomaly: 62.7754 deg

Mean motion: 13.87488072 rev/day

Mean motion (dot): 0.00002632 rev/day2

B* drag term: 0.0016146 1/REarth

Two-line elements (TLE)

Creation date: July 6, 2025, 10:36 p.m.

Reference frame: TEME

Reference center: EARTH

Epoch: July 6, 2025, 5:45 p.m. UTC

TLE line 0: 0 COSMOS 2251 DEB

TLE line 1: 1 34434U 93036SB 25187.74011139 .00002632 00000-0 16146-2 0 9991

TLE line 2: 2 34434 74.0608 279.9759 0288827 91.8520 62.7754 13.87488072817851

Live tracking on map

Real-time ground track for satellite COSMOS 2251 DEB.

In-orbit conjunctions

A list of the most updated potential collisions computed for object COSMOS 2251 DEB.

Target Orbit TCA Probability of collision Miss distance Type
FENGYUN 1C DEB SSO 2024-11-08 18:32:00 0.0002300908 446.0 (m) DEBRIS
THORAD AGENA D DEB LEO 2024-09-25 19:15:35 0.0001599799 928.0 (m) DEBRIS

Associated space launch

Military communications satellite. Destroyed in a collision with Iridium 33.

COSMOS 2251 DEB was lifted into orbit during the mission ‘Kosmos-3M | Strela-2M 51’, on board a Kosmos-3M space rocket.

The launch took place on June 16, 1993, 4:17 a.m. from 132/1 (132L).

For more information about the launch, click the button.

Launch to space Kosmos-3M | Strela-2M 51
Kosmos-3M | Strela-2M 51

Agency: N/A

Status: Launch Successful

Launch date: June 16, 1993, 4:17 a.m. UTC

Rocket: Kosmos-3M

Launch pad: 132/1 (132L)

Location: Plesetsk Cosmodrome, Russian Federation

...

Latest news about this satellite

There are no fresh news available about this satellite. Check back as we update our databases every day.


Newsletter sign-up

Weekly statistics, charts and insights to help you stay on top of the space industry.